Terminal Aerodrome Forecast
Issued by NWS Tuscon, AZ

Home | Current Version | Previous Version | Text Only | Print | Product List | Glossary On
Versions: 1 2 3 4 5 6 7 8 9 10 11 12 13 14 15 16 17 18
000
FTUS45 KTWC 211100
TAFDUG
TAF
KDUG 211130Z 2112/2212 01008KT P6SM BKN250
     FM211900 31007KT P6SM BKN250
     FM220600 01007KT P6SM BKN250=

USA.gov is the U.S. government's official web portal to all federal, state and local government web resources and services.